Location: Unspecified
(0.0000°N, 0.0000°E)
Time: 04:54:03
(UTC+00:00)

Vanguard 1 Rocket - All Passes

Search period start: 23 February 2018 00:00
Search period end: 05 March 2018 00:00
Orbit: 655 x 4222 km, 34.3° (Epoch: 22 February)

Date Brightness Start Highest point End Pass type
(mag) Time Alt. Az. Time Alt. Az. Time Alt. Az.
23 Feb - 02:35:44 10° NW 02:56:09 28° NNE 03:11:35 10° ENE visible
23 Feb - 05:09:40 10° NW 05:31:22 56° NNE 05:42:55 10° ESE visible
23 Feb - 07:44:43 10° WNW 07:59:42 49° SW 08:07:31 10° SSE daylight
23 Feb - 17:44:30 10° SW 17:51:46 59° SE 18:06:05 10° ENE daylight
23 Feb - 20:09:36 10° W 20:20:17 47° NNW 20:40:03 10° NE visible
23 Feb - 22:41:35 10° WNW 22:55:53 24° NNW 23:14:47 10° NE visible
24 Feb - 01:19:29 10° NW 01:38:11 23° N 01:55:08 10° ENE visible
24 Feb - 03:54:06 10° NW 04:16:42 42° NNE 04:30:35 10° E visible
24 Feb - 06:28:09 10° NW 06:47:50 82° SW 06:57:31 10° SE daylight
24 Feb - 09:07:11 10° W 09:13:55 17° SW 09:18:45 10° S daylight
24 Feb - 16:35:13 10° SSW 16:40:47 28° SE 16:49:46 10° E daylight
24 Feb - 18:58:13 10° WSW 19:06:57 66° NNW 19:24:37 10° NE visible
24 Feb - 21:26:57 10° WNW 21:39:15 29° NNW 21:58:10 10° NE visible
25 Feb - 00:03:06 10° NW 00:19:22 21° N 00:37:01 10° NE visible
25 Feb - 02:38:39 10° NW 03:00:38 33° NNE 03:16:41 10° E visible
25 Feb - 05:12:05 10° NW 05:34:48 70° NE 05:46:39 10° ESE visible
25 Feb - 07:48:34 10° WNW 08:02:35 37° SW 08:10:23 10° SSE daylight
25 Feb - 15:29:07 10° SE 15:29:52 10° SE 15:30:40 10° SE daylight
25 Feb - 17:47:42 10° SW 17:54:51 80° SE 18:09:16 10° NE daylight
25 Feb - 20:13:52 10° W 20:24:11 37° NNW 20:42:19 10° NE visible
25 Feb - 22:47:04 10° NW 23:00:54 22° N 23:18:30 10° NE visible
26 Feb - 01:23:14 10° NW 01:43:10 26° NNE 02:00:44 10° ENE visible
26 Feb - 03:56:29 10° NW 04:20:27 52° NNE 04:34:45 10° ESE visible
26 Feb - 06:31:12 10° WNW 06:50:48 65° SW 07:00:41 10° SE daylight
26 Feb - 09:13:45 10° WSW 09:17:09 12° SW 09:20:02 10° SSW daylight
26 Feb - 16:38:00 10° SSW 16:43:44 41° SE 16:53:49 10° ENE daylight
26 Feb - 19:02:02 10° WSW 19:10:33 50° NNW 19:27:03 10° NE visible
26 Feb - 21:32:06 10° WNW 21:43:48 24° NNW 22:00:54 10° NE visible
27 Feb - 00:07:48 10° NW 00:24:41 22° N 00:42:31 10° NE visible
27 Feb - 02:41:18 10° NW 03:04:46 39° NNE 03:21:26 10° E visible
27 Feb - 05:14:40 10° NW 05:38:00 86° NE 05:50:08 10° SE visible
27 Feb - 07:52:57 10° W 08:05:30 28° SW 08:13:04 10° SSE daylight
27 Feb - 15:29:32 10° S 15:33:03 16° SE 15:37:37 10° E daylight
27 Feb - 17:51:07 10° WSW 17:58:07 76° NW 18:12:09 10° NE daylight
27 Feb - 20:18:29 10° WNW 20:28:21 29° NNW 20:44:35 10° NE visible
27 Feb - 22:52:27 10° NW 23:06:07 20° N 23:22:58 10° NE visible
28 Feb - 01:26:28 10° NW 01:47:48 30° NNE 02:06:08 10° ENE visible
28 Feb - 03:58:54 10° NW 04:23:55 63° NNE 04:38:36 10° ESE visible
28 Feb - 06:34:37 10° WNW 06:53:39 51° SW 07:03:42 10° SSE daylight
28 Feb - 16:41:02 10° SW 16:46:47 60° SE 16:57:24 10° ENE daylight
28 Feb - 19:06:08 10° W 19:14:22 37° NNW 19:29:20 10° NE visible
28 Feb - 21:37:32 10° NW 21:48:38 20° N 22:04:02 10° NE visible
01 Mar - 00:11:53 10° NNW 00:29:48 24° NNE 00:48:19 10° ENE visible
01 Mar - 02:43:49 10° NW 03:08:34 47° NNE 03:25:48 10° E visible
01 Mar - 05:17:28 10° NW 05:40:59 79° SW 05:53:25 10° SE visible
01 Mar - 07:58:01 10° W 08:08:33 21° SW 08:15:31 10° S daylight
01 Mar - 15:31:47 10° SSW 15:36:07 25° SE 15:42:25 10° E daylight
01 Mar - 17:54:48 10° WSW 18:01:37 55° NNW 18:14:47 10° NE daylight
01 Mar - 20:23:31 10° WNW 20:32:45 23° NNW 20:46:56 10° NNE visible
01 Mar - 22:57:25 10° NW 23:11:24 20° N 23:28:14 10° NE visible
02 Mar - 01:29:21 10° NW 01:52:03 36° NNE 02:11:10 10° E visible
02 Mar - 04:01:24 10° NW 04:27:09 76° NE 04:42:12 10° ESE visible
02 Mar - 06:38:28 10° WNW 06:56:29 40° SW 07:06:34 10° SSE daylight
02 Mar - 16:44:18 10° SW 16:50:00 87° SE 17:00:37 10° NE daylight
02 Mar - 19:10:38 10° WNW 19:18:25 28° NNW 19:31:30 10° NNE visible
02 Mar - 21:43:02 10° NW 21:53:40 18° N 22:07:50 10° NE visible
03 Mar - 00:15:23 10° NNW 00:34:34 27° NNE 00:54:03 10° ENE visible
03 Mar - 02:46:19 10° NW 03:12:03 57° NNE 03:29:49 10° ESE visible
03 Mar - 05:20:34 10° WNW 05:43:50 64° SW 05:56:31 10° SE visible
03 Mar - 08:03:56 10° WSW 08:11:50 16° SW 08:17:37 10° S daylight
03 Mar - 15:34:31 10° SSW 15:39:12 39° SE 15:46:30 10° ENE daylight
03 Mar - 17:58:47 10° W 18:05:21 39° NNW 18:17:11 10° NE daylight
03 Mar - 20:28:56 10° NW 20:37:23 19° N 20:49:28 10° NNE visible
03 Mar - 23:01:45 10° NNW 23:16:33 21° NNE 23:34:05 10° ENE visible
04 Mar - 01:32:03 10° NW 01:55:54 43° NNE 02:15:48 10° E visible
04 Mar - 04:04:04 10° NW 04:30:08 90° SSW 04:45:33 10° SE visible
04 Mar - 06:42:51 10° W 06:59:23 32° SW 07:09:18 10° SSE daylight
04 Mar - 14:26:03 10° S 14:28:36 14° SE 14:31:33 10° ESE daylight
04 Mar - 16:47:49 10° WSW 16:53:23 63° NNW 17:03:31 10° NE daylight
04 Mar - 19:15:35 10° WNW 19:22:41 21° NNW 19:33:34 10° NNE visible
04 Mar - 21:48:14 10° NNW 21:58:49 17° N 22:12:31 10° NE visible
